Showing default

BUGSAT 1, 40014

Orbit data source: Space-Track

BUGSAT 1, 40014 is a payload satellite owned by Satellogic SA (AR) in SSO that was launched on Thu, 19 Jun 2014 UTC via a DNEPR launch vehicle from the Orenburg, Russia (OREN). Payload-class satellites include a variety of spacecraft equipped with specific instruments for various scientific and technological missions. These include communications satellites like Starlink; space stations such as the ISS; scientific satellites like the Hubble; Earth observation satellites from companies like Planet Labs, Umbra, and HawkEye 360; GPS; miniature CubeSats for education and research; and military/defense satellites.

Loading next visibility...
Identifier
40014, 2014-033E
Orbit
SSO
Country
Flag of UnknownUnknown / ARGN
Related business
Manufacturer
Satellogic SA
Mission
Operational Commercial Imaging
Bus & Motor
BUGSAT, Unknown motor
Mass
22 kg wet, 22 kg dry
Launch date (UTC)
2014-06-19 (11 years ago)
Launch vehicle
DNEPR
Launch site
Orenburg, Russia (OREN)
Object type
Payload
Rocket body
Debris
Shape & HBR
Box, 0.3 m
Radar Cross Section
0.263 m², Medium (>0.1 m² and < 1m²)

Expand to show TLE details & history
Last TLE update: 9 hours ago

TLE from 9 hours ago
0 BUGSAT 1
1 40014U 14033E   25258.93258634  .00005403  00000-0  31709-3 0  9997
2 40014  98.0659 330.9379 0031043  37.7073 322.6323 15.11796598614341
Epoch: 2025-09-15T22:22Z
TLE epoch observation values (Epoch: 2025-09-15T22:22:55.459Z)
Latitude
-0.00006°
Longitude
0.07669°
Altitude
516.756 km
Speed
7.615 km/s
True Right ascension
22h 03m 45s
True Declination
0° 00' 00"
Sunlit
Object was in full shadow at epoch
Visualization orbit readout
Latitude
Unknown
Longitude
Unknown
Altitude
Unknown
Speed
Unknown
Apparent Right ascension
Unknown
Apparent Declination
Unknown
Sunlit
N/A
Visualization observer readout
Local Sidereal Time
00:03:09
Azimuth
Unknown
Elevation
Unknown
Doppler factor
Unknown
Orbital elements
Apogee altitude
549.165 km
Perigee altitude
506.289 km
Semi-major axis
6,905.864 km
Eccentricity
0.0031
Inclination
98.0659°
RAAN
330.9379°
Arg. of periapsis
37.7073°
True anomaly
322.41573°
Mean anomaly
322.6323°
Eccentric anomaly
322.52408°
Mean motion
3.78195 °/min
Orbital period
95.19 mins
BSTAR
0.00031709
Loading maneuver chart data...
Computing Atmospheric mass density...
Loading historical data...
Loading historical data...
Loading historical data...
Loading historical data...
Loading historical data...
Loading historical data...
Loading historical data...

Documentation

Showing up to 5 results
|